Dewpoint
18 15 18 22 21 19 17 15 9 7 7 7 6 4 6 2 -1 2 40 53 53 51 53 55 54 55 57 59 60 61 60 61 60 59 59 60 61 61 61 60 61 63 64 63
14 13 14 20 22 21 19 17 15 12 10 8 6 5 5 5 1 -0 39 51 51 50 52 50 54 53 54 58 61 61 59 60 59 58 58 59 60 60 60 58 59 59 62 63
0 8 12 15 18 20 20 18 15 11 10 8 4 2 3 4 3 1 34 48 50 50 51 52 49 54 59 61 61 61 59 59 59 57 58 57 56 56 55 55 56 56 59 63
4 6 10 17 18 19 18 19 18 14 8 3 2 -2 0 2 2 1 15 47 47 49 51 56 59 59 57 61 61 61 60 58 58 58 56 55 55 55 54 53 54 53 53 60
9 14 11 12 25 21 18 20 24 20 10 5 4 0 0 3 3 2 0 39 46 46 49 53 56 60 59 61 61 61 60 59 58 57 56 53 51 49 50 49 51 50 50 54
16 18 15 15 18 24 27 27 24 23 17 5 4 1 0 0 2 3 5 21 43 47 52 57 59 60 59 61 62 62 60 59 57 57 56 52 49 49 48 48 48 48 49 53
17 18 16 16 23 25 28 28 22 14 11 7 5 3 2 3 7 7 7 6 38 48 54 58 59 58 59 60 61 61 60 59 57 57 54 51 48 48 47 46 47 47 49 53
15 14 20 21 22 23 27 27 22 14 12 10 8 3 1 3 5 6 9 10 33 46 52 56 57 54 58 60 61 61 59 59 57 55 53 49 48 47 47 46 46 47 48 53
14 14 23 25 29 27 28 25 28 23 10 7 7 3 3 13 27 37 32 14 35 46 50 53 53 55 55 59 60 60 59 58 57 54 52 49 47 47 46 46 46 47 48 53
20 15 15 25 23 28 26 28 21 27 10 6 8 5 18 35 37 38 39 28 37 46 49 51 54 55 58 59 59 62 60 58 57 54 52 48 47 47 47 46 46 46 48 52
22 20 14 18 21 22 26 25 29 21 14 5 7 14 35 36 38 38 40 42 35 46 51 50 52 57 59 60 60 61 60 59 57 54 51 48 48 47 47 46 46 46 48 51
21 21 16 15 18 24 31 25 25 16 10 14 16 21 37 38 39 39 41 42 38 46 53 52 56 58 59 59 59 60 60 59 58 55 51 49 50 48 47 46 47 47 47 49
23 18 15 21 23 26 29 28 24 21 21 15 16 20 36 37 38 40 41 46 44 48 53 55 57 58 58 58 58 60 59 59 59 55 50 49 50 48 48 47 47 47 48 48
23 23 19 16 20 26 25 27 27 22 17 19 28 29 33 35 36 38 40 48 50 51 52 53 54 56 56 55 55 58 59 59 58 54 50 48 48 48 49 48 47 47 48 48
26 19 22 25 25 22 23 24 24 24 28 24 26 28 30 33 35 36 38 39 46 49 49 52 55 54 56 54 57 59 59 59 58 55 51 49 49 49 49 47 47 47 47 47
27 21 25 23 20 18 18 20 22 22 24 27 27 26 32 35 35 34 35 37 38 41 48 52 52 53 57 58 59 58 59 58 58 56 53 51 51 50 48 46 46 46 46 46
25 24 22 22 24 16 13 20 23 23 25 25 21 27 31 32 32 32 33 35 36 39 41 44 51 54 54 55 59 59 59 59 58 57 55 53 51 50 47 46 45 45 45 45
25 25 25 20 14 9 21 26 27 25 24 26 27 28 30 31 34 33 34 34 35 37 39 42 45 51 54 58 54 60 60 59 59 57 55 53 51 50 48 45 45 45 44 44
24 27 17 14 14 18 18 23 24 22 22 27 27 29 30 32 35 31 34 35 35 36 39 42 48 50 54 57 58 59 59 58 57 56 53 51 51 49 48 45 45 45 44 43
18 17 15 12 8 8 19 26 27 30 17 28 29 28 29 28 23 27 34 34 34 36 37 40 43 46 50 57 58 58 58 58 57 56 54 52 51 50 48 47 45 45 44 43
18 16 13 12 13 17 25 27 21 12 18 29 30 30 29 26 29 32 34 33 34 35 36 38 40 41 43 47 58 57 58 57 57 56 55 53 51 50 50 49 48 46 44 44
18 15 16 13 11 11 29 27 20 26 30 31 31 31 31 31 31 32 33 33 33 33 35 36 37 38 40 43 44 47 48 53 58 57 56 54 52 52 50 48 47 46 45 44
18 22 19 21 20 29 31 30 32 33 31 27 26 26 27 31 31 31 31 32 33 33 33 35 35 36 37 39 40 39 41 48 58 57 55 54 54 51 50 49 48 47 46 45
22 25 23 24 27 29 31 33 33 32 26 27 26 25 25 26 27 29 31 31 32 32 32 33 34 34 35 37 37 38 40 45 55 57 56 55 53 51 51 50 50 48 47 46
23 22 21 21 26 27 27 32 31 28 27 27 27 26 27 26 26 28 27 28 29 31 31 30 31 32 33 34 35 37 38 41 47 52 55 54 54 52 51 51 50 49 48 46
26 24 21 21 27 28 26 27 27 27 27 28 27 27 27 27 26 28 28 28 26 27 29 28 28 28 30 31 33 34 37 38 41 42 44 51 54 53 52 51 49 48 49 47
Wind_Speed
12 17 24 19 19 19 20 21 23 12 12 14 21 27 29 21 25 24 17 20 25 27 24 25 31 21 27 22 27 27 28 26 23 21 23 22 22 18 17 16 20 20 20 20
8 37 17 16 21 24 24 27 34 28 21 19 24 29 27 23 29 22 22 24 25 23 20 22 22 21 29 32 32 29 31 25 25 21 19 17 18 14 18 17 19 19 21 20
15 19 18 29 25 24 29 29 26 27 24 25 22 28 23 20 21 28 24 30 30 30 31 26 25 34 30 37 36 31 35 29 24 20 19 17 16 15 9 15 16 16 19 20
15 7 17 26 27 28 30 26 26 24 23 23 10 25 23 13 24 25 21 27 31 29 29 32 33 34 38 32 32 34 32 30 25 24 23 28 23 25 14 16 16 15 17 20
23 22 22 20 22 16 28 12 11 18 26 21 23 13 20 10 21 24 22 32 32 31 30 33 30 35 38 24 19 19 31 29 27 25 26 23 22 15 17 17 22 15 14 18
22 21 25 22 23 20 10 10 19 19 20 29 28 17 16 21 21 24 20 25 34 26 28 27 33 32 30 28 28 20 28 29 29 27 27 24 27 23 22 21 22 19 14 14
34 12 27 22 16 12 5 5 6 14 23 22 23 11 17 20 17 24 26 21 34 33 31 30 35 34 33 30 39 35 29 29 28 28 27 25 26 27 27 25 22 22 19 15
12 15 8 9 20 14 23 16 10 11 8 24 15 9 16 23 24 26 23 23 31 33 34 34 35 34 34 37 30 31 34 31 27 30 27 26 27 23 21 22 20 19 19 17
10 11 18 3 5 14 7 14 17 4 5 5 7 7 26 18 17 22 25 24 28 34 36 38 32 31 34 30 33 31 33 32 26 29 26 25 25 24 23 20 19 17 17 17
5 12 6 6 4 19 11 9 13 7 6 8 2 6 4 22 26 26 27 15 25 32 32 29 30 30 26 35 35 29 33 33 26 26 27 25 25 23 22 21 24 22 19 18
4 3 9 10 5 2 4 7 4 5 6 8 1 2 12 17 19 29 28 21 16 31 29 29 31 30 32 30 29 21 27 29 26 28 25 25 23 23 22 22 21 21 18 21
3 5 9 6 15 7 3 6 16 4 1 3 5 1 16 16 19 27 33 27 18 31 35 33 31 31 28 26 26 33 29 26 26 26 25 25 22 22 24 23 21 21 21 18
6 4 9 3 2 9 7 2 3 8 3 2 2 6 25 24 29 32 36 26 15 31 27 25 28 30 31 30 26 24 29 30 26 25 25 24 24 24 24 23 21 21 20 19
4 4 3 7 12 4 19 28 19 5 5 5 7 14 22 24 28 33 36 32 18 7 13 29 27 27 27 26 23 22 24 28 29 27 27 27 26 25 23 22 23 23 21 21
5 4 5 7 16 50 35 35 37 31 24 10 14 11 23 24 26 24 27 31 30 23 9 3 13 26 26 25 23 26 27 28 27 28 28 27 24 23 22 22 22 21 21 21
5 3 3 26 13 41 39 41 34 36 33 13 13 8 28 16 21 27 29 29 29 28 25 10 3 7 17 22 23 27 23 26 27 28 28 24 23 22 25 23 23 22 20 19
4 6 7 6 13 8 24 33 20 22 22 15 14 20 25 9 18 27 27 27 29 28 25 20 18 14 6 10 22 24 26 25 26 25 24 22 24 24 24 24 24 24 23 20
7 9 4 5 6 17 10 24 16 13 30 28 24 26 23 17 5 23 27 28 25 26 28 24 16 13 10 4 19 18 23 29 28 25 25 26 27 26 23 24 25 23 22 24
14 3 10 8 17 4 18 26 14 11 24 31 25 25 25 24 6 24 33 26 25 22 21 23 19 13 12 8 13 18 17 28 27 26 26 26 26 27 26 26 25 21 21 20
27 30 12 9 13 14 18 30 32 2 18 28 27 27 23 21 28 21 29 25 26 25 25 25 24 21 23 4 13 14 18 15 26 28 27 26 26 26 27 24 21 18 17 18
12 14 28 20 9 7 28 33 14 16 10 27 26 24 29 28 18 16 21 28 26 24 25 27 25 23 22 29 8 15 18 17 16 19 19 19 21 21 22 20 18 18 16 15
15 8 10 10 9 10 26 15 15 10 13 18 22 24 19 24 25 21 25 25 29 31 32 31 27 27 27 29 26 19 17 11 17 22 22 19 18 17 19 21 19 19 19 18
14 17 13 10 8 3 11 16 13 15 15 17 21 24 22 22 27 26 25 26 27 27 28 26 28 28 31 26 29 24 25 23 11 21 21 22 22 22 24 24 21 21 21 20
16 16 9 2 12 13 15 10 14 11 20 21 20 24 25 23 21 23 25 26 25 27 27 26 27 29 29 26 26 26 28 27 12 16 20 22 23 22 22 22 22 21 21 19
10 8 9 21 18 8 16 9 9 15 16 22 24 24 24 25 25 23 23 23 26 23 27 26 29 29 35 33 30 30 32 30 22 18 5 21 22 24 22 21 22 23 23 24
6 8 12 11 5 5 10 11 13 17 20 20 21 25 27 25 25 23 24 24 25 29 30 30 30 32 31 31 32 32 27 25 24 23 20 15 6 19 19 18 14 3 16 23
Wind_Direction
242 257 232 219 216 230 256 269 266 272 268 260 260 268 268 270 266 254 218 190 194 190 198 185 173 192 242 263 184 177 169 171 164 163 158 156 158 152 150 154 150 152 152 150
265 246 247 230 217 228 238 248 259 275 271 258 267 266 269 261 261 250 211 189 199 194 176 183 181 167 238 229 189 182 173 167 164 164 153 156 150 154 153 149 149 146 153 157
275 275 285 230 232 232 235 239 252 255 268 268 268 271 266 272 263 258 212 197 195 194 183 182 187 186 200 201 188 184 175 168 165 155 136 131 131 126 142 151 153 148 155 163
277 284 285 240 228 229 245 242 253 259 251 256 211 269 266 256 264 255 220 196 194 195 196 177 184 182 187 192 187 186 172 167 159 156 152 154 157 161 160 162 162 157 154 164
271 281 281 264 272 256 251 247 292 283 258 244 248 251 266 256 264 265 249 199 203 192 187 176 179 186 188 173 208 209 167 163 164 165 157 154 154 154 155 151 157 160 163 163
306 289 252 249 244 250 267 294 283 281 255 247 248 231 260 258 252 267 281 200 202 183 189 183 171 169 179 177 193 198 175 165 166 167 161 161 157 153 156 160 161 168 169 163
319 273 237 205 232 232 198 210 230 237 236 246 243 230 239 259 253 253 255 252 192 174 174 173 171 171 170 187 192 186 180 169 166 168 164 163 160 160 163 167 166 168 171 166
341 321 308 199 206 211 186 186 227 201 208 235 244 236 245 250 260 263 266 270 184 173 175 179 182 178 174 174 193 183 182 175 168 164 166 162 162 164 166 168 171 174 177 163
313 307 308 343 198 191 163 194 205 295 225 201 218 221 246 276 324 341 308 257 178 177 176 186 188 175 175 161 191 188 183 177 173 163 161 164 163 163 169 170 165 174 167 162
303 295 316 314 289 221 190 169 169 197 214 234 258 265 3 8 346 336 329 297 178 180 183 179 170 174 170 175 183 193 179 175 170 157 161 165 166 166 167 164 168 173 170 159
297 265 294 304 182 127 161 138 80 252 244 201 228 203 11 6 353 340 331 307 218 174 183 178 169 172 172 171 173 163 192 168 167 164 161 162 167 164 162 166 168 174 169 164
244 273 283 267 286 306 246 189 186 243 16 62 109 43 25 5 351 0 333 317 213 182 180 182 167 168 168 171 171 164 184 173 174 163 159 163 162 163 165 167 169 169 172 169
325 304 315 160 57 21 29 338 206 175 108 60 58 299 8 6 8 8 344 325 205 183 171 167 158 165 166 169 176 171 181 188 179 166 156 158 165 170 168 168 166 167 168 170
329 288 316 19 301 227 54 39 28 138 109 76 34 338 7 8 10 9 353 21 51 40 169 163 162 166 171 176 167 172 177 175 175 168 163 165 171 171 167 166 166 167 170 170
17 274 265 230 74 70 51 51 50 50 39 46 2 342 357 4 7 359 3 18 30 33 52 133 165 172 167 175 178 161 179 176 173 164 168 173 168 167 163 165 166 166 170 172
328 305 91 119 99 64 50 28 36 40 25 8 5 359 344 350 3 14 8 10 20 20 17 22 12 164 182 176 180 167 173 173 176 170 175 169 164 166 166 165 166 165 168 169
303 328 357 41 348 355 35 21 22 46 27 6 15 335 332 3 12 22 6 10 12 8 360 10 10 352 213 196 176 169 170 169 172 174 174 172 170 169 170 164 166 172 175 171
305 339 14 13 19 51 335 6 4 49 25 7 0 350 335 323 33 21 14 11 3 2 352 350 339 342 349 223 192 169 171 176 181 178 178 175 177 172 169 169 175 176 175 180
14 341 41 72 61 99 16 347 337 337 22 1 350 347 347 345 261 20 6 360 4 354 352 344 334 331 312 231 193 182 178 178 175 173 175 173 176 172 169 178 178 177 176 181
26 43 78 46 64 31 334 337 329 310 14 351 355 4 352 13 41 3 349 359 4 3 1 355 1 23 18 233 178 183 174 182 181 179 179 176 180 177 174 174 173 174 180 181
1 15 43 41 82 49 348 344 346 55 333 325 342 347 7 24 13 342 349 9 8 8 9 9 16 23 15 15 190 191 181 174 171 161 163 175 178 172 169 164 168 165 170 171
29 35 18 25 64 30 345 7 45 346 337 341 353 358 11 20 15 8 9 8 12 13 15 13 14 21 22 23 25 22 30 333 157 158 160 170 163 154 159 160 161 162 170 177
56 53 58 42 72 325 344 29 16 20 10 13 16 11 19 27 21 13 11 9 14 17 20 14 21 15 23 18 24 11 360 349 188 160 166 166 166 160 160 166 174 178 183 187
35 34 49 66 37 29 16 19 13 27 22 14 18 19 19 21 27 29 20 19 13 15 18 17 23 22 25 18 19 11 3 359 350 169 164 170 171 167 175 176 177 179 186 189
16 22 51 62 41 29 39 20 0 17 23 24 22 23 20 17 18 28 34 24 25 20 25 22 24 22 25 17 16 13 8 3 11 26 166 175 166 168 176 181 177 184 192 191
10 50 59 70 360 52 24 22 36 37 27 20 22 19 22 20 18 17 27 28 22 21 20 22 27 27 22 19 15 13 6 11 17 25 5 18 210 173 175 169 170 176 199 192